Hourly Data Report for July 28, 2021

BORDEN AWOS
ONTARIO
Current Station Operator: DND

44°16'20.000" N
79°54'42.000" W
222.50 m
611B002
71534
YBN

Download Data

Hourly Data (July 2021)
Hourly Data Report for July 28, 2021
TIME
LST
Temp Definition
°C
Dew Point Definition
°C
Rel Hum Definition
%
Precip. Amount Definition
mm

Wind Dir Definition
10's deg

Wind Spd Definition
km/h
Visibility Definition
km
Stn Press Definition
kPa
Hmdx Definition


Wind Chill Definition


Weather Definition


00:00
01:00 12.7 12.6 99     0 0.6 99.11     LegendNANA
02:00 12.1 12.1 100   19 4 14.5 99.10     LegendNANA
03:00 11.6 11.6 100     0 0.3 99.14     LegendNANA
04:00 11.1 11.0 99   23 4 4.8 99.18     LegendNANA
05:00 13.4 13.4 100     0 11.3 99.20     LegendNANA
06:00 15.9 15.7 99   16 6 0.5 99.27     LegendNANA
07:00 16.5 16.4 99   15 6 4.0 99.29     LegendNANA
08:00 16.9 16.7 99   13 6 8.0 99.31     LegendNANA
09:00 18.0 16.7 92   17 4 14.5 99.30     LegendNANA
10:00 20.4 16.5 78   19 11 14.5 99.29 25   LegendNANA
11:00 22.5 15.6 65   13 9 14.5 99.23 27   LegendNANA
12:00 23.7 14.1 55   11 4 14.5 99.20 27   LegendNANA
13:00 25.3 14.2 50   23 7 14.5 99.21 29   LegendNANA
14:00 26.5 14.8 49   14 6 14.5 99.14 30   LegendNANA
15:00 25.4 15.0 53   9 11 14.5 99.08 29   LegendNANA
16:00 25.2 14.6 52   10 6 14.5 99.04 29   LegendNANA
17:00 24.9 13.6 50   10 15 14.5 98.98 28   LegendNANA
18:00 23.8 13.5 53   12 11 14.5 98.98 27   LegendNANA
19:00 21.4 16.4 73   15 11 14.5 98.97 26   LegendNANA
20:00 19.7 15.2 75   15 9 14.5 98.99     LegendNANA
21:00 19.1 14.7 76   16 11 14.5 98.95     LegendNANA
22:00 18.5 14.3 77   18 9 14.5 98.96     LegendNANA
23:00 17.5 13.9 79   18 9 14.5 98.87     LegendNANA

Notes on Data Quality.

Legend

  • E = Estimated
  • M = Missing
  • NA = Not Available*
  • [empty] = Indicates an unobserved value
Date modified: